This is the latest recevied weather packets stored in our database for station/object K3TLB-13. If no packets are shown the sender has not sent any weather packets the latest 10 day(s).
| Time | Temp. | Humidity | Pressure | Rain* | Wind** | Luminosity | Snow |
|---|---|---|---|---|---|---|---|
| 1777508401 | 12.78° C | 90% | 1007.1 hPa | 2.03 mm | - | - | - |
| 1777508362 | 12.78° C | 90% | 1007.1 hPa | 2.03 mm | - | - | - |
| 1777508060 | 12.78° C | 89% | 1007.2 hPa | 1.78 mm | - | - | - |
| 1777507763 | 12.78° C | 89% | 1006.9 hPa | 1.78 mm | - | - | - |
| 1777507460 | 12.78° C | 89% | 1006.6 hPa | 1.52 mm | - | - | - |
| 1777507160 | 12.78° C | 89% | 1006.7 hPa | 1.52 mm | - | - | - |
| 1777506860 | 12.78° C | 89% | 1006.8 hPa | 1.27 mm | - | - | - |
| 1777506562 | 12.78° C | 88% | 1007.1 hPa | 1.27 mm | - | - | - |
| 1777506260 | 12.78° C | 88% | 1007.4 hPa | 1.02 mm | - | - | - |
| 1777505960 | 12.78° C | 88% | 1007.5 hPa | 0.51 mm | - | - | - |
| 1777505660 | 12.78° C | 88% | 1007.3 hPa | 0.51 mm | - | - | - |
| 1777505361 | 12.78° C | 88% | 1007.4 hPa | 0.51 mm | - | - | - |
| 1777505060 | 12.78° C | 88% | 1007.3 hPa | 0.51 mm | - | - | - |
| 1777504761 | 12.78° C | 88% | 1007.2 hPa | 0.51 mm | - | - | - |
| 1777504461 | 12.78° C | 88% | 1007.3 hPa | 0.25 mm | - | - | - |
| 1777504161 | 12.78° C | 88% | 1007.4 hPa | 0.25 mm | - | - | - |
| 1777503861 | 12.78° C | 88% | 1007.5 hPa | 0.51 mm | - | - | - |
| 1777503561 | 12.78° C | 88% | 1007.5 hPa | 1.02 mm | - | - | - |
| 1777503261 | 12.78° C | 88% | 1007.6 hPa | 1.52 mm | - | - | - |
| 1777502962 | 12.78° C | 88% | 1007.6 hPa | 1.78 mm | - | - | - |
| 1777502661 | 12.78° C | 88% | 1007.6 hPa | 2.03 mm | - | - | - |
| 1777502361 | 12.78° C | 87% | 1007.6 hPa | 2.03 mm | - | - | - |
| 1777502061 | 12.78° C | 87% | 1007.6 hPa | 2.03 mm | - | - | - |
| 1777501762 | 12.78° C | 87% | 1007.4 hPa | 2.03 mm | - | - | - |
| 1777501461 | 12.78° C | 87% | 1007.4 hPa | 2.03 mm | - | - | - |
* Rain latest hour (hover to see other rain measurements)
** Current wind speed in m/s (hover to see current wind gust speed)